Wind_Speed
30 28 28 29 30 30 28 31 28 31 29 28 29 31 33 32 33 32 30 30 27 29 26 26 28 27 24 21 27 20 20 25
31 29 26 28 29 28 28 29 26 24 27 27 28 29 31 32 31 30 28 31 31 30 30 30 28 26 24 24 23 25 21 17
32 28 26 26 29 27 26 29 23 26 28 27 27 30 32 31 29 28 28 31 31 31 29 29 28 26 24 23 20 22 26 23
31 30 27 26 29 29 27 29 23 28 29 29 30 30 31 33 32 26 28 30 30 30 30 30 30 31 31 28 25 23 20 22
30 28 25 27 28 29 30 29 22 29 30 32 33 36 38 35 30 32 33 33 35 35 34 31 32 32 31 31 30 28 25 25
31 28 26 29 29 31 30 25 25 28 31 35 39 40 40 32 28 30 33 33 33 32 33 31 29 29 30 32 30 29 29 30
31 28 29 28 29 29 29 25 26 26 33 37 39 38 33 25 25 26 29 30 30 33 33 29 32 30 29 30 32 32 31 28
27 30 27 24 27 26 28 25 22 28 33 38 39 35 29 26 25 26 27 26 29 29 29 30 30 29 30 30 30 30 34 33
27 29 26 24 25 23 27 24 22 29 33 35 37 34 30 26 26 26 28 26 28 29 28 27 29 28 26 29 30 31 35 35
25 27 26 23 23 20 23 22 25 26 29 32 35 32 28 26 28 28 29 26 26 28 28 27 29 30 30 31 31 31 32 30
24 27 26 27 24 21 20 20 24 22 26 31 34 32 27 30 28 29 29 25 26 29 30 27 28 28 30 32 31 31 25 21
22 25 23 26 27 23 22 22 23 17 24 28 31 31 28 30 27 29 29 27 27 29 30 30 26 29 30 29 31 27 21 15
22 23 20 22 27 25 25 25 23 19 23 25 30 33 35 30 29 29 28 29 28 26 26 27 25 31 28 29 24 21 7 34
18 19 19 22 24 24 19 19 17 18 21 24 29 32 34 32 32 29 25 28 31 31 27 25 24 27 23 22 7 15 30 38
15 17 20 22 19 21 22 18 15 20 22 21 26 28 31 30 33 32 25 25 27 28 25 24 22 24 27 13 5 6 17 9
15 18 21 21 18 21 22 22 16 20 20 23 23 25 28 28 32 34 27 21 30 28 25 22 22 23 22 19 18 20 6 9
14 17 20 18 19 20 21 20 17 18 20 24 24 26 27 25 32 31 28 21 33 28 25 24 22 17 22 22 20 18 18 8
14 14 16 16 16 18 19 18 17 19 21 25 26 26 26 26 33 29 27 27 31 26 24 24 23 20 27 22 17 17 16 13
16 12 14 16 16 16 18 17 17 19 20 23 26 26 24 30 30 29 28 27 28 25 25 25 25 23 27 23 19 22 20 17
15 15 17 15 13 15 17 16 16 18 19 21 23 20 24 27 28 30 28 29 27 27 25 24 24 25 24 28 19 25 24 22
Wind_Direction
43 43 43 40 41 40 34 29 25 26 21 20 20 15 11 14 12 11 10 10 3 0 358 358 355 351 349 347 350 324 282 277
39 34 34 37 36 39 38 36 34 36 33 27 20 12 7 6 11 10 9 4 2 354 353 354 354 345 351 343 334 341 329 299
39 39 39 39 38 36 34 35 43 34 31 27 21 14 9 6 7 7 4 1 1 0 358 354 347 342 339 344 345 337 333 324
38 35 35 39 40 33 32 32 33 27 24 21 16 10 6 360 2 7 5 1 360 358 354 352 348 341 336 333 329 331 336 329
35 30 32 37 37 32 33 32 30 25 20 19 13 10 8 9 12 6 1 358 357 357 357 356 347 342 341 337 329 319 313 313
27 31 36 37 37 35 32 41 26 24 19 16 14 11 9 11 10 4 1 1 356 354 350 346 347 343 337 336 333 329 323 309
30 33 35 36 35 35 39 38 32 23 22 18 14 13 16 21 13 10 5 1 358 349 346 344 341 338 337 334 330 326 324 320
33 31 31 32 32 36 39 35 32 22 20 18 15 17 23 20 15 10 6 0 356 350 347 339 338 335 332 329 326 324 318 317
36 28 28 30 30 36 39 37 29 22 20 19 17 20 23 17 9 8 3 358 354 351 347 343 338 334 330 330 326 318 321 321
33 27 27 29 29 36 42 39 24 22 24 20 17 22 23 14 8 7 4 360 354 352 347 341 338 335 331 329 322 316 315 326
34 27 32 30 34 34 36 36 24 23 24 22 19 20 17 8 10 9 4 356 356 354 348 345 338 338 331 325 319 314 327 335
37 33 32 27 25 27 31 32 26 20 26 25 24 20 16 14 16 13 6 1 355 352 349 346 338 338 332 325 318 320 327 337
36 35 36 30 24 24 25 19 26 25 22 23 23 21 23 19 19 16 8 1 359 352 351 344 343 344 339 336 330 320 75 345
46 45 39 29 28 31 22 28 27 24 15 19 18 17 20 24 19 15 5 2 359 355 351 347 344 352 345 329 334 337 335 329
52 53 39 28 28 26 24 27 31 25 20 15 15 15 16 19 18 14 6 2 357 352 351 349 342 348 355 352 339 335 321 346
64 42 28 24 31 31 31 26 26 26 21 14 14 13 15 15 11 10 8 359 357 351 352 347 353 344 346 344 335 311 322 319
52 32 25 34 39 31 27 29 27 22 21 14 13 14 16 15 7 9 11 358 356 357 354 353 336 346 345 333 328 323 318 313
34 28 30 33 26 29 26 26 24 22 20 15 11 10 14 12 7 11 8 3 354 1 1 357 344 332 349 339 335 331 325 323
30 33 20 18 19 33 33 30 27 23 18 13 12 13 12 7 12 11 7 3 357 3 1 2 356 347 342 337 345 338 331 325
37 35 19 31 40 36 32 28 26 23 17 15 15 17 8 11 9 7 5 0 1 5 5 1 356 352 336 346 351 345 338 331
Height
859 857 855 853 851 849 847 844 842 840 837 834 831 829 826 824 822 818 815 810 806 804 800 796 794 791 789 785 783 782 781 780
863 861 858 855 854 852 850 847 843 840 838 835 833 831 827 824 821 820 816 811 807 803 800 797 794 790 787 785 782 781 778 776
867 864 862 859 857 854 851 848 844 842 839 837 834 831 828 824 822 819 816 812 807 804 801 796 791 789 786 784 780 780 777 773
870 868 865 862 859 856 854 851 847 844 841 839 835 832 828 825 821 818 814 812 807 804 799 795 791 787 784 781 779 777 774 772
873 870 867 864 861 858 855 852 849 846 843 840 836 834 828 824 820 816 812 810 806 801 798 795 791 787 783 780 777 775 772 769
875 872 868 865 863 860 858 855 852 849 847 842 838 834 831 827 825 820 815 812 809 805 800 797 792 788 784 778 775 772 769 766
878 874 870 867 865 863 860 859 856 853 849 846 841 837 833 830 827 823 819 815 812 808 802 797 792 787 783 779 773 769 766 764
880 876 873 871 868 866 865 862 858 854 851 848 845 841 835 832 828 824 821 818 814 810 805 800 793 787 781 778 773 767 762 759
881 878 876 872 870 869 867 865 860 858 855 850 847 843 839 835 831 825 822 818 815 810 805 800 793 787 782 776 770 765 758 754
882 880 877 875 872 869 867 865 861 858 855 851 847 843 840 837 833 827 822 818 816 811 805 800 794 787 780 773 767 761 755 751
883 881 879 877 874 872 869 866 864 860 857 853 849 844 841 837 834 829 823 819 815 811 805 800 794 788 780 772 764 757 753 750
885 884 882 879 877 874 872 869 867 864 860 855 851 847 842 836 832 829 826 820 815 810 805 800 794 788 779 770 761 754 753 750
886 885 884 882 879 876 873 872 870 867 864 859 854 846 841 837 832 829 827 823 817 812 806 800 794 788 777 767 759 752 749 748
889 888 886 883 880 876 875 872 871 869 864 861 857 851 843 837 833 829 827 824 818 812 807 801 796 790 784 773 759 750 747 745
891 888 886 884 881 879 876 873 871 869 866 863 858 853 847 840 835 830 828 824 819 813 808 804 798 792 789 785 773 766 756 742
891 889 887 885 882 880 877 875 872 870 867 864 859 855 848 843 837 832 828 824 820 814 808 805 801 794 789 788 785 778 766 747
892 890 888 886 884 880 878 876 875 872 868 864 861 855 849 844 839 834 829 825 820 814 808 804 801 796 791 786 781 775 770 763
893 891 889 887 885 882 879 877 875 872 869 865 862 858 851 845 840 835 830 825 820 814 809 805 801 796 791 785 781 776 769 763
893 891 889 888 885 883 880 879 877 874 870 865 861 857 853 847 842 837 832 826 820 814 809 804 800 795 791 785 781 776 770 764
894 892 890 889 887 885 882 879 875 872 869 864 860 857 853 849 844 839 833 827 820 814 808 804 799 795 790 784 780 775 769 763